Location: Dumpton Point
(51.3500°N, 1.4433°E)
Time: 23:01:34
(UTC+00:00)

Tiros 1 despin weight - Pass Details

Date: 24 April 2021
Orbit: 593 x 642 km, 48.2° (Epoch: 07 May)

Event Time Altitude Azimuth Distance (km) Brightness Sun altitude
Exits shadow 03:10:55 10° 187° (S) 1,987 ? -12.7°
Maximum altitude 03:14:00 18° 144° (SE) 1,523 ? -12.3°
Drops below altitude 10° 03:17:09 10° 101° (E) 1,994 ? -11.9°
Sets 03:20:02 0° 83° (E) 2,893 ? -11.6°
